Location: Unspecified
(0.0000°N, 0.0000°E)
Time: 04:30:17
(UTC+00:00)

PANSAT - Visible Passes

Search period start: 08 June 2023 00:00
Search period end: 18 June 2023 00:00
Orbit: 456 x 462 km, 28.4° (Epoch: 07 June)

Date Brightness Start Highest point End Pass type
(mag) Time Alt. Az. Time Alt. Az. Time Alt. Az.
08 Jun 8.9 19:00:47 10° SSW 19:03:32 21° SSE 19:03:32 21° SSE visible
09 Jun 9.0 18:24:17 10° SSW 18:26:59 19° SSE 18:29:41 10° ESE visible
09 Jun 9.9 20:02:43 10° WSW 20:03:55 19° WSW 20:03:55 19° WSW visible
10 Jun 7.8 19:26:02 10° WSW 19:29:39 60° NNW 19:30:38 41° NNE visible
11 Jun 10.3 05:29:37 10° NNW 05:31:57 16° NNE 05:34:17 10° ENE visible
11 Jun 7.7 18:49:19 10° WSW 18:52:58 69° NNW 18:56:37 10° NE visible
12 Jun 10.4 04:53:10 10° N 04:55:15 15° NNE 04:57:21 10° ENE visible
12 Jun 10.5 19:54:25 10° NW 19:55:39 11° NNW 19:56:55 10° N visible
13 Jun 10.4 04:16:45 10° N 04:18:33 13° NNE 04:20:22 10° ENE visible
13 Jun 10.5 19:17:16 10° NW 19:18:57 13° NNW 19:20:37 10° N visible
14 Jun 10.6 03:41:58 12° NNE 03:41:58 12° NNE 03:43:17 10° NE visible
14 Jun 7.4 05:17:35 10° WNW 05:21:12 85° NNE 05:24:50 10° ESE visible
14 Jun 10.4 18:40:13 10° WNW 18:42:13 14° NNW 18:44:13 10° N visible
15 Jun 7.5 04:42:30 25° NW 04:44:29 74° NNE 04:48:07 10° ESE visible
16 Jun 8.9 04:09:11 33° ESE 04:09:11 33° ESE 04:11:22 10° ESE visible
17 Jun 9.0 05:09:31 17° SW 05:10:20 18° SSW 05:12:54 10° SSE visible
